Torna al catalogo

STARLINK-34045

AttivoComunicazioniVLEO
NORAD 63979·PAYLOAD·🇺🇸 United States

Lanciato May 13, 2025 da Cape Canaveral Space Force Station

Loading…

Prossimi Passaggi (prossime 24 ore)

TLE

AggiornatoSource: CelesTrak SupGP

Epoca: Sep 15, 2026, 03:14 UTC

1 63979C 25099AD  26258.13520833 -.00008401  00000+0 -30431-3 0  2583
2 63979  42.9994 182.7445 0000880 276.2565 342.2498 15.27578807    16

Traccia STARLINK-34045 in tempo reale con AllMySat

Download on the App Store